When you browse on this site, cookies collect data to enhance your experience and personalize the content and advertising you see.
Visit our Privacy Policy to learn more. By continuing to use the site, you agree to this use of cookies and data.
  • In Österreich
  • Länderverzeichnis
  • Für 7 Tage
  • Wassertemperatur
  • Satellitenkarten
  • Wetterkarte
  • News
  • Widgets
  • user-avatar
    Anmelden

    Stündliche Wetter Belize

    Heute, 25 Juni, Dienstag

    Zeit Temperatur Niederschläge Wind Luftdruck Luftfeuchtigkeit
    00:00 +27°C° 0 mm 6 m/S 759 mmHg 95%
    01:00 +26°C° 0 mm 6 m/S 759 mmHg 96%
    02:00 +26°C° 0 mm 6 m/S 759 mmHg 97%
    03:00 +26°C° 0 mm 6 m/S 758 mmHg 98%
    04:00 +26°C° 0 mm 6 m/S 759 mmHg 97%
    05:00 +26°C° 0 mm 6 m/S 759 mmHg 97%
    06:00 +26°C° 0 mm 6 m/S 759 mmHg 97%
    07:00 +28°C° 0 mm 6 m/S 760 mmHg 85%
    08:00 +30°C° 0 mm 6 m/S 760 mmHg 73%
    09:00 +34°C° 0 mm 6 m/S 760 mmHg 60%
    10:00 +34°C° 0 mm 6 m/S 760 mmHg 57%
    11:00 +35°C° 0 mm 6 m/S 760 mmHg 54%
    12:00 +35°C° 0 mm 6 m/S 760 mmHg 50%
    13:00 +35°C° 0 mm 6 m/S 760 mmHg 52%
    14:00 +35°C° 0 mm 6 m/S 759 mmHg 53%
    15:00 +34°C° 0 mm 6 m/S 758 mmHg 55%
    16:00 +33°C° 0 mm 6 m/S 759 mmHg 62%
    17:00 +32°C° 0 mm 6 m/S 759 mmHg 69%
    18:00 +30°C° 0 mm 5 m/S 759 mmHg 77%
    19:00 +29°C° 0 mm 6 m/S 759 mmHg 82%
    20:00 +28°C° 0 mm 6 m/S 760 mmHg 87%
    21:00 +27°C° 0 mm 6 m/S 761 mmHg 91%
    22:00 +27°C° 0 mm 6 m/S 760 mmHg 93%
    23:00 +27°C° 0 mm 5 m/S 760 mmHg 94%

    Morgen, 26 Juni, Mittwoch

    Zeit Temperatur Niederschläge Wind Luftdruck Luftfeuchtigkeit
    00:00 +26°C° 0 mm 5 m/S 760 mmHg 96%
    01:00 +26°C° 0.1 mm 5 m/S 760 mmHg 96%
    02:00 +26°C° 0.1 mm 5 m/S 760 mmHg 97%
    03:00 +26°C° 0.1 mm 5 m/S 759 mmHg 98%
    04:00 +26°C° 0 mm 5 m/S 759 mmHg 97%
    05:00 +26°C° 0 mm 5 m/S 760 mmHg 96%
    06:00 +26°C° 0 mm 6 m/S 760 mmHg 96%
    07:00 +28°C° 0 mm 5 m/S 760 mmHg 85%
    08:00 +30°C° 0 mm 5 m/S 760 mmHg 74%
    09:00 +33°C° 0 mm 5 m/S 761 mmHg 64%
    10:00 +34°C° 0.1 mm 5 m/S 761 mmHg 61%
    11:00 +35°C° 0.1 mm 6 m/S 760 mmHg 58%
    12:00 +35°C° 0.1 mm 6 m/S 760 mmHg 55%
    13:00 +35°C° 0.2 mm 6 m/S 760 mmHg 57%
    14:00 +35°C° 0.2 mm 7 m/S 759 mmHg 60%
    15:00 +34°C° 0.2 mm 7 m/S 759 mmHg 62%
    16:00 +33°C° 0 mm 7 m/S 759 mmHg 66%
    17:00 +32°C° 0 mm 7 m/S 759 mmHg 71%
    18:00 +30°C° 0 mm 6 m/S 759 mmHg 75%
    19:00 +29°C° 0 mm 6 m/S 760 mmHg 80%
    20:00 +28°C° 0 mm 6 m/S 760 mmHg 85%
    21:00 +27°C° 0 mm 6 m/S 761 mmHg 90%
    22:00 +27°C° 0.1 mm 6 m/S 760 mmHg 92%
    23:00 +27°C° 0.1 mm 6 m/S 760 mmHg 93%

    übermorgen, 27 Juni, Donnerstag

    Zeit Temperatur Niederschläge Wind Luftdruck Luftfeuchtigkeit
    00:00 +26°C° 0.1 mm 6 m/S 760 mmHg 95%
    01:00 +26°C° 0 mm 5 m/S 760 mmHg 95%
    02:00 +26°C° 0 mm 5 m/S 759 mmHg 96%
    03:00 +26°C° 0 mm 5 m/S 759 mmHg 96%
    04:00 +26°C° 0 mm 5 m/S 759 mmHg 96%
    05:00 +26°C° 0 mm 4 m/S 759 mmHg 95%
    06:00 +26°C° 0 mm 4 m/S 759 mmHg 95%
    07:00 +28°C° 0.3 mm 4 m/S 760 mmHg 85%
    08:00 +30°C° 0.3 mm 4 m/S 760 mmHg 76%
    09:00 +33°C° 0.3 mm 4 m/S 761 mmHg 67%
    10:00 +32°C° 1.3 mm 5 m/S 761 mmHg 72%
    11:00 +32°C° 1.3 mm 5 m/S 760 mmHg 77%
    12:00 +32°C° 1.3 mm 6 m/S 760 mmHg 82%
    13:00 +32°C° 0.7 mm 6 m/S 760 mmHg 75%
    14:00 +33°C° 0.7 mm 6 m/S 759 mmHg 67%
    15:00 +34°C° 0.7 mm 6 m/S 759 mmHg 60%
    16:00 +33°C° 0 mm 5 m/S 759 mmHg 64%
    17:00 +30°C° 0 mm 5 m/S 759 mmHg 69%
    18:00 +29°C° 0 mm 5 m/S 759 mmHg 73%
    19:00 +28°C° 0 mm 5 m/S 760 mmHg 80%
    20:00 +27°C° 0 mm 5 m/S 760 mmHg 86%
    21:00 +26°C° 0 mm 6 m/S 761 mmHg 93%
    22:00 +26°C° 0 mm 5 m/S 761 mmHg 94%
    23:00 +26°C° 0 mm 5 m/S 760 mmHg 96%

    28 Juni, Freitag

    Zeit Temperatur Niederschläge Wind Luftdruck Luftfeuchtigkeit
    00:00 +26°C° 0 mm 5 m/S 760 mmHg 97%
    01:00 +26°C° 0 mm 4 m/S 760 mmHg 98%
    02:00 +26°C° 0 mm 4 m/S 760 mmHg 98%
    03:00 +25°C° 0 mm 4 m/S 759 mmHg 98%
    04:00 +26°C° 0 mm 3 m/S 759 mmHg 97%
    05:00 +26°C° 0 mm 3 m/S 760 mmHg 96%
    06:00 +26°C° 0 mm 3 m/S 760 mmHg 95%
    07:00 +28°C° 0 mm 3 m/S 760 mmHg 85%
    08:00 +30°C° 0 mm 4 m/S 761 mmHg 75%
    09:00 +33°C° 0 mm 4 m/S 761 mmHg 65%
    10:00 +34°C° 0 mm 4 m/S 761 mmHg 60%
    11:00 +35°C° 0 mm 4 m/S 761 mmHg 54%
    12:00 +36°C° 0 mm 4 m/S 760 mmHg 48%
    13:00 +35°C° 0 mm 4 m/S 760 mmHg 50%
    14:00 +35°C° 0 mm 4 m/S 759 mmHg 52%
    15:00 +35°C° 0 mm 4 m/S 759 mmHg 54%
    16:00 +33°C° 0 mm 4 m/S 759 mmHg 60%
    17:00 +32°C° 0 mm 5 m/S 759 mmHg 66%
    18:00 +30°C° 0 mm 5 m/S 759 mmHg 72%
    19:00 +29°C° 0 mm 5 m/S 759 mmHg 79%
    20:00 +27°C° 0 mm 4 m/S 760 mmHg 86%
    21:00 +26°C° 0 mm 4 m/S 760 mmHg 93%
    22:00 +26°C° 0.4 mm 4 m/S 760 mmHg 94%
    23:00 +26°C° 0.4 mm 4 m/S 760 mmHg 95%

    29 Juni, Samstag

    Zeit Temperatur Niederschläge Wind Luftdruck Luftfeuchtigkeit
    00:00 +25°C° 0.4 mm 3 m/S 760 mmHg 97%
    01:00 +25°C° 0.7 mm 3 m/S 760 mmHg 98%
    02:00 +25°C° 0.7 mm 3 m/S 760 mmHg 98%
    03:00 +25°C° 0.7 mm 3 m/S 759 mmHg 99%
    04:00 +25°C° 0.6 mm 3 m/S 760 mmHg 99%
    05:00 +25°C° 0.6 mm 2 m/S 760 mmHg 99%
    06:00 +25°C° 0.6 mm 2 m/S 760 mmHg 98%
    07:00 +27°C° 0.5 mm 2 m/S 760 mmHg 90%
    08:00 +29°C° 0.5 mm 2 m/S 761 mmHg 81%
    09:00 +31°C° 0.5 mm 2 m/S 761 mmHg 72%
    10:00 +31°C° 0.7 mm 2 m/S 761 mmHg 74%
    11:00 +31°C° 0.7 mm 3 m/S 761 mmHg 76%
    12:00 +31°C° 0.7 mm 3 m/S 761 mmHg 78%
    13:00 +33°C° 0 mm 3 m/S 760 mmHg 68%
    14:00 +34°C° 0 mm 4 m/S 760 mmHg 58%
    15:00 +34°C° 0 mm 4 m/S 759 mmHg 49%
    16:00 +33°C° 0 mm 4 m/S 759 mmHg 57%
    17:00 +30°C° 0 mm 4 m/S 759 mmHg 66%
    18:00 +29°C° 0 mm 4 m/S 759 mmHg 75%
    19:00 +28°C° 0.1 mm 4 m/S 760 mmHg 81%
    20:00 +27°C° 0.1 mm 4 m/S 760 mmHg 87%
    21:00 +26°C° 0.1 mm 5 m/S 761 mmHg 93%
    22:00 +25°C° 0.2 mm 5 m/S 761 mmHg 94%
    23:00 +25°C° 0.2 mm 5 m/S 760 mmHg 95%

    30 Juni, Sonntag

    Zeit Temperatur Niederschläge Wind Luftdruck Luftfeuchtigkeit
    00:00 +25°C° 0.2 mm 5 m/S 760 mmHg 97%
    01:00 +25°C° 1.3 mm 5 m/S 760 mmHg 97%
    02:00 +25°C° 1.3 mm 5 m/S 759 mmHg 98%
    03:00 +25°C° 1.3 mm 5 m/S 759 mmHg 99%
    04:00 +25°C° 2.9 mm 5 m/S 759 mmHg 99%
    05:00 +24°C° 2.9 mm 6 m/S 759 mmHg 99%
    06:00 +24°C° 2.9 mm 7 m/S 759 mmHg 99%
    07:00 +24°C° 3 mm 6 m/S 760 mmHg 98%
    08:00 +26°C° 3 mm 6 m/S 760 mmHg 98%
    09:00 +26°C° 3 mm 5 m/S 760 mmHg 97%
    10:00 +27°C° 2.8 mm 6 m/S 760 mmHg 97%
    11:00 +27°C° 2.8 mm 6 m/S 760 mmHg 96%
    12:00 +27°C° 2.8 mm 7 m/S 760 mmHg 96%
    13:00 +27°C° 1.4 mm 7 m/S 760 mmHg 96%
    14:00 +27°C° 1.4 mm 6 m/S 759 mmHg 96%
    15:00 +27°C° 1.4 mm 6 m/S 759 mmHg 96%
    16:00 +27°C° 1.1 mm 5 m/S 759 mmHg 96%
    17:00 +27°C° 1.1 mm 5 m/S 759 mmHg 96%
    18:00 +27°C° 1.1 mm 5 m/S 759 mmHg 96%
    19:00 +27°C° 2 mm 5 m/S 759 mmHg 97%
    20:00 +26°C° 2 mm 6 m/S 759 mmHg 98%
    21:00 +26°C° 2 mm 7 m/S 760 mmHg 99%
    22:00 +26°C° 3.6 mm 7 m/S 760 mmHg 99%
    23:00 +26°C° 3.6 mm 8 m/S 760 mmHg 99%
    Mehr zeigen